Dewpoint
14 14 11 12 12 12 10 9 8 12 9 4 6 7 6 8 8 4 3 -5 -9 -11 -10 -6 -8 4 6 6 6 7 7 6
13 14 13 13 10 10 9 8 8 9 10 5 8 7 7 8 6 -3 -3 -8 -10 -10 -10 -10 -7 2 6 6 6 6 6 7
11 13 13 13 12 11 10 8 7 11 9 5 8 8 9 7 2 -5 -8 -10 -10 -9 -11 -10 -8 3 6 6 6 6 7 7
11 11 12 13 13 11 9 10 7 11 10 8 9 9 7 9 7 -8 -8 -9 -10 -11 -10 -8 -6 5 6 6 6 6 6 4
10 11 11 12 12 12 11 11 10 8 11 10 9 8 8 10 7 -6 -9 -10 -8 -6 -6 -7 -1 5 6 7 6 6 7 1
11 11 11 12 12 11 12 11 11 11 11 10 7 7 7 9 8 -3 -3 -3 -3 -4 -4 -4 -0 5 7 6 7 7 6 2
11 11 11 11 12 11 11 11 11 11 11 9 7 7 9 9 6 0 2 0 -2 1 6 5 1 5 6 6 6 6 6 -0
8 9 9 9 10 12 11 11 10 11 10 9 6 7 6 7 3 2 4 2 -1 7 7 6 5 5 6 7 7 7 6 3
9 8 8 9 10 10 10 11 11 11 10 8 8 5 4 7 4 3 6 5 3 7 7 6 6 5 6 6 7 7 7 6
9 8 9 10 9 11 11 11 11 10 10 9 7 7 7 6 6 5 8 7 6 8 6 6 5 5 5 6 6 7 7 7
10 8 8 9 10 10 10 10 10 10 10 9 8 8 7 8 6 7 8 7 7 8 6 5 5 5 5 5 5 6 6 7
10 8 9 9 9 10 10 10 10 10 9 9 8 7 8 4 7 8 9 9 8 7 6 5 5 4 4 4 4 3 2 2
10 8 9 10 10 9 9 9 9 9 9 9 7 4 5 8 9 8 7 7 7 7 5 5 6 6 5 3 3 3 2 2
9 9 9 10 9 9 9 9 9 9 9 7 7 7 7 8 7 6 7 7 7 6 6 7 7 6 5 4 5 5 4 3
9 10 9 10 10 9 9 9 9 9 8 6 6 6 8 7 7 7 6 5 5 5 5 6 7 7 5 5 7 7 7 6
11 10 9 10 9 9 9 9 9 8 7 6 5 4 2 4 6 4 2 1 2 4 5 6 7 6 7 6 6 6 7 7
10 9 9 10 9 9 9 9 9 8 4 2 1 4 7 7 6 5 1 1 2 1 4 6 6 6 5 6 6 6 5 5
10 10 9 9 9 9 9 8 8 8 6 3 6 7 6 7 7 6 2 3 -0 0 5 7 6 7 6 6 5 5 6 6
9 10 9 9 9 9 9 9 9 8 7 3 4 7 7 6 6 5 4 3 2 3 5 7 6 5 5 5 6 5 6 6
8 9 9 9 9 9 9 9 8 9 8 7 4 4 6 5 3 4 3 3 5 5 6 6 5 5 4 4 6 6 5 5
Wind_Speed
18 20 19 22 29 30 21 18 20 28 34 32 30 27 24 23 23 21 21 20 24 25 26 26 27 32 31 28 22 20 14 13
18 18 18 23 27 28 31 21 20 38 36 33 31 28 25 24 22 21 21 24 25 26 27 27 30 31 31 26 23 15 11 13
15 17 18 17 22 25 23 24 16 16 41 34 33 28 26 25 23 23 25 25 26 26 27 28 29 30 29 26 21 17 16 10
16 19 19 19 18 22 24 23 7 20 37 38 35 32 29 26 24 25 26 26 26 27 27 28 28 32 27 23 21 15 11 10
16 16 18 16 16 18 21 20 20 26 38 38 35 33 32 27 28 28 29 28 28 27 27 28 33 29 22 19 19 12 9 12
11 15 15 19 18 23 22 25 28 31 38 38 36 34 32 30 31 31 31 30 29 27 26 23 30 21 12 19 17 12 9 12
10 10 12 16 20 23 25 25 30 46 44 38 32 34 33 28 33 33 31 30 27 26 23 17 19 16 15 22 13 12 9 13
9 11 15 18 20 23 25 30 29 43 43 38 38 32 33 31 33 34 30 29 30 24 21 19 17 16 17 20 14 12 8 9
12 7 5 9 17 24 27 31 35 40 35 40 33 37 34 32 35 34 27 26 27 22 20 20 18 17 19 18 16 15 10 8
11 3 2 8 12 20 31 44 42 36 38 32 39 32 31 34 35 32 27 24 23 21 21 20 19 17 17 18 17 17 16 11
11 7 7 5 6 21 30 30 30 26 39 35 32 34 32 32 34 32 30 29 27 23 20 20 19 19 17 16 16 18 19 18
12 9 8 9 15 22 27 30 31 30 38 32 38 43 31 35 31 30 32 31 27 21 24 21 20 19 16 18 17 16 15 17
13 17 11 13 15 16 22 21 27 40 37 40 38 36 35 34 36 32 30 26 26 25 24 21 19 20 17 17 16 18 17 17
15 20 14 13 16 20 21 21 30 36 42 36 39 37 39 37 36 34 35 34 31 26 24 24 20 23 22 19 15 18 23 24
21 24 19 14 18 19 22 26 32 42 39 43 41 38 39 41 37 37 33 31 31 29 27 28 29 27 27 16 10 13 14 21
20 21 20 20 22 25 26 30 35 39 48 42 40 40 37 29 34 35 35 34 30 30 29 30 28 25 26 25 17 10 8 4
25 24 23 21 28 24 27 28 31 39 49 46 46 39 39 35 34 37 39 38 34 31 28 30 28 26 22 22 22 23 22 18
27 24 26 23 30 28 28 28 33 40 43 53 45 41 39 40 40 39 40 37 35 34 31 31 25 20 23 24 25 26 22 18
26 28 30 28 29 33 31 34 33 36 43 55 52 44 43 41 43 42 39 36 35 36 33 28 25 25 24 25 27 27 25 23
25 26 28 31 33 33 35 31 36 33 36 46 56 53 48 45 44 42 42 39 38 39 37 31 30 27 31 36 31 31 31 30
Wind_Direction
230 238 239 220 223 221 233 229 256 221 182 180 178 171 170 171 173 171 167 157 153 150 149 146 143 141 131 126 125 134 145 139
228 231 237 244 223 227 210 242 262 218 204 182 177 172 171 177 174 169 163 156 154 151 147 148 146 141 133 123 123 134 130 134
246 228 230 232 225 220 223 243 281 205 185 182 175 170 174 171 167 159 160 157 154 151 149 147 144 141 135 126 121 128 146 169
248 237 225 221 224 216 217 211 275 240 185 177 172 169 166 170 163 159 160 155 152 149 147 145 142 139 133 124 122 159 176 180
260 241 232 221 214 207 203 202 207 217 177 172 170 165 162 169 161 159 156 153 150 149 151 147 144 136 127 128 125 171 193 163
261 236 234 216 210 207 203 200 188 179 165 172 167 166 167 174 166 162 156 156 154 152 147 145 147 125 120 134 132 176 199 163
235 212 218 213 210 208 202 195 185 181 173 167 167 168 167 168 169 166 160 159 157 147 139 157 159 128 168 140 140 188 198 160
225 230 225 236 213 201 205 193 184 182 167 170 169 178 177 167 175 170 163 165 160 143 154 163 156 166 164 144 154 178 208 172
242 253 212 197 217 215 215 210 192 185 185 180 185 185 189 169 180 174 168 172 165 148 175 164 164 174 161 159 170 157 192 213
234 178 128 176 170 201 189 194 189 191 183 185 185 185 179 169 179 177 170 180 166 178 178 164 171 169 170 173 175 174 175 208
209 179 105 149 172 196 207 185 177 197 189 187 189 176 171 176 178 182 185 185 177 185 178 171 176 175 182 184 182 189 197 185
193 178 155 149 170 159 180 189 193 201 185 187 177 167 169 181 186 184 185 170 175 183 173 177 184 180 187 188 195 203 215 205
194 181 168 164 178 184 170 171 186 183 192 173 167 167 176 184 193 193 191 186 180 186 175 185 186 187 190 193 203 206 220 221
192 187 189 167 175 188 189 182 189 189 178 177 173 178 186 187 188 188 188 188 191 181 188 186 190 193 191 200 198 223 222 220
203 196 201 194 178 183 190 188 179 185 188 179 180 185 191 195 193 195 196 203 193 189 194 199 198 197 195 192 187 222 233 237
186 193 189 194 180 188 188 190 183 184 183 181 187 185 197 213 206 208 209 206 200 201 206 209 208 211 204 207 214 214 210 267
196 196 191 196 189 195 193 190 194 186 184 189 178 187 200 198 202 213 210 203 205 210 212 218 215 214 219 226 242 247 252 242
194 193 195 197 195 193 196 196 195 193 192 186 192 197 201 202 199 208 208 211 215 216 219 219 219 218 217 235 241 247 256 249
200 202 202 200 198 199 199 194 198 203 201 197 199 204 209 210 209 209 211 216 217 220 222 225 227 232 232 243 244 245 246 250
200 204 205 207 202 205 202 208 207 208 211 211 209 212 214 215 217 219 220 220 222 227 228 234 235 243 242 246 250 251 253 255
Height
1469 1470 1472 1473 1475 1477 1485 1484 1490 1502 1497 1502 1509 1516 1520 1523 1525 1529 1532 1534 1538 1540 1544 1548 1551 1557 1560 1563 1566 1567 1566 1566
1467 1470 1469 1469 1471 1472 1479 1490 1489 1490 1500 1501 1509 1515 1519 1524 1526 1529 1533 1536 1539 1542 1544 1549 1554 1558 1562 1565 1568 1569 1568 1569
1463 1466 1467 1468 1470 1473 1480 1481 1477 1478 1494 1500 1508 1514 1519 1526 1527 1529 1533 1537 1540 1544 1547 1551 1555 1560 1564 1566 1569 1571 1570 1571
1460 1462 1464 1467 1469 1472 1477 1478 1474 1475 1492 1501 1508 1513 1520 1527 1529 1530 1535 1538 1542 1546 1550 1553 1556 1562 1564 1567 1570 1572 1572 1573
1457 1458 1463 1466 1467 1469 1472 1476 1477 1478 1492 1501 1506 1513 1519 1525 1528 1531 1535 1540 1543 1547 1551 1554 1558 1562 1566 1567 1571 1572 1572 1573
1454 1455 1458 1462 1464 1466 1470 1476 1481 1479 1486 1500 1504 1512 1516 1523 1528 1532 1535 1540 1544 1549 1553 1555 1560 1562 1566 1567 1573 1572 1573 1574
1452 1454 1455 1459 1462 1464 1466 1471 1478 1479 1490 1497 1505 1511 1518 1522 1528 1532 1536 1540 1546 1550 1553 1555 1560 1563 1566 1568 1573 1573 1574 1575
1450 1451 1454 1455 1459 1464 1466 1469 1475 1479 1488 1494 1501 1512 1515 1522 1528 1533 1537 1541 1546 1551 1554 1556 1560 1563 1566 1568 1573 1573 1574 1576
1448 1449 1451 1453 1455 1460 1464 1469 1473 1481 1489 1495 1501 1507 1513 1519 1529 1533 1537 1542 1547 1550 1554 1556 1559 1563 1566 1569 1572 1575 1575 1575
1445 1447 1448 1450 1455 1457 1459 1463 1468 1477 1486 1492 1498 1504 1512 1519 1528 1533 1538 1542 1546 1549 1552 1555 1560 1562 1565 1568 1571 1574 1576 1575
1443 1446 1449 1449 1452 1455 1461 1464 1470 1477 1484 1489 1494 1502 1511 1519 1526 1532 1536 1540 1544 1547 1551 1555 1559 1562 1564 1568 1570 1572 1574 1575
1442 1446 1448 1451 1454 1455 1458 1462 1469 1475 1481 1486 1493 1502 1511 1519 1525 1527 1530 1532 1541 1546 1550 1554 1557 1561 1564 1566 1569 1571 1572 1573
1441 1445 1448 1451 1453 1457 1460 1463 1468 1473 1480 1487 1494 1502 1512 1518 1522 1526 1530 1534 1539 1545 1547 1552 1555 1559 1562 1564 1567 1569 1569 1570
1440 1444 1447 1450 1454 1457 1461 1464 1468 1472 1480 1488 1495 1502 1509 1515 1520 1524 1528 1532 1537 1541 1545 1548 1552 1556 1558 1561 1563 1567 1565 1567
1436 1441 1446 1450 1453 1457 1461 1465 1469 1474 1480 1487 1493 1500 1505 1511 1517 1522 1526 1530 1534 1537 1540 1545 1548 1552 1555 1555 1559 1559 1560 1563
1435 1439 1443 1448 1451 1455 1458 1462 1465 1471 1476 1485 1492 1498 1504 1508 1514 1518 1522 1526 1530 1533 1536 1541 1544 1548 1552 1552 1554 1555 1558 1559
1433 1437 1441 1445 1449 1453 1457 1462 1466 1472 1478 1484 1489 1494 1500 1506 1510 1514 1519 1522 1526 1529 1533 1538 1541 1545 1546 1550 1552 1552 1554 1557
1430 1434 1439 1443 1448 1452 1456 1460 1464 1469 1474 1480 1485 1490 1496 1500 1504 1509 1514 1518 1521 1525 1529 1532 1535 1538 1542 1546 1548 1549 1549 1550
1426 1431 1436 1440 1444 1449 1454 1458 1462 1466 1471 1475 1480 1485 1490 1495 1500 1504 1508 1512 1516 1522 1525 1527 1531 1533 1535 1540 1543 1543 1545 1546
1422 1426 1431 1436 1440 1445 1450 1455 1460 1464 1468 1472 1476 1479 1484 1490 1494 1498 1503 1506 1512 1516 1519 1522 1525 1528 1531 1534 1536 1538 1539 1540